This is the latest recevied weather packets stored in our database for station/object K5NOC-12. If no packets are shown the sender has not sent any weather packets the latest 10 day(s).
| Time | Temp. | Humidity | Pressure | Rain* | Wind** | Luminosity | Snow |
|---|---|---|---|---|---|---|---|
| 1777295393 | 13.89° C | 30% | 1009.6 hPa | 0 mm | - | - | - |
| 1777294493 | 12.22° C | 31% | 1009.4 hPa | 0 mm | - | - | - |
| 1777293593 | 11.11° C | 32% | 1009.4 hPa | 0 mm | - | - | - |
| 1777292693 | 11.11° C | 31% | 1009.3 hPa | 0 mm | - | - | - |
| 1777291793 | 12.22° C | 29% | 1009 hPa | 0 mm | - | - | - |
| 1777290893 | 13.33° C | 28% | 1008.8 hPa | 0 mm | - | - | - |
| 1777289993 | 12.78° C | 28% | 1008.5 hPa | 0 mm | - | - | - |
| 1777289093 | 13.33° C | 27% | 1008.5 hPa | 0 mm | - | - | - |
| 1777288193 | 13.33° C | 26% | 1008.3 hPa | 0 mm | - | - | - |
| 1777287334 | 13.89° C | 25% | 1008.1 hPa | 0 mm | - | - | - |
| 1777287292 | 13.89° C | 25% | 1008.1 hPa | 0 mm | - | - | - |
| 1777286392 | 13.89° C | 24% | 1007.9 hPa | 0 mm | - | - | - |
| 1777285492 | 14.44° C | 23% | 1007.7 hPa | 0 mm | - | - | - |
| 1777284592 | 14.44° C | 23% | 1007.6 hPa | 0 mm | - | - | - |
| 1777283692 | 15.56° C | 22% | 1007.4 hPa | 0 mm | - | - | - |
| 1777282792 | 16.11° C | 20% | 1007.2 hPa | 0 mm | - | - | - |
| 1777281892 | 16.67° C | 19% | 1007 hPa | 0 mm | - | - | - |
| 1777280992 | 17.22° C | 19% | 1006.8 hPa | 0 mm | - | - | - |
| 1777280092 | 17.78° C | 18% | 1006.7 hPa | 0 mm | - | - | - |
| 1777279191 | 18.33° C | 17% | 1006.5 hPa | 0 mm | - | - | - |
| 1777278291 | 18.89° C | 17% | 1006.3 hPa | 0 mm | - | - | - |
| 1777277391 | 18.89° C | 17% | 1006.3 hPa | 0 mm | - | - | - |
| 1777276491 | 20° C | 17% | 1006.2 hPa | 0 mm | - | - | - |
| 1777275591 | 20° C | 16% | 1006.1 hPa | 0 mm | - | - | - |
| 1777274691 | 20.56° C | 16% | 1006.1 hPa | 0 mm | - | - | - |
* Rain latest hour (hover to see other rain measurements)
** Current wind speed in m/s (hover to see current wind gust speed)